Location: Ingoldesthorpe
(52.8667°N, 0.5167°E)
Time: 21:05:05
(UTC+00:00)

Okean 1 - Pass Details

Date: 19 May 2025
Orbit: 478 x 498 km, 82.5° (Epoch: 21 June)

Event Time Altitude Azimuth Distance (km) Brightness Sun altitude
Exits shadow 21:44:14 17° 170° (S) 1,301 4.7 -11.9°
Maximum altitude 21:46:52 55° 96° (E) 595 3.3 -12.1°
Drops below altitude 10° 21:50:29 10° 19° (NNE) 1,684 6.4 -12.4°
Sets 21:52:36 0° 15° (NNE) 2,567 7.5 -12.5°
